Weather observations for the past three days for
Nevada County Air Park
Metric (Imperial)
Date Time (pdt) Wind (kph) Vis. (km) Weather Sky Cond. Temperature (ºC) Relative Humidity Wind Chill (°C) Heat Index (°C) Pressure Precipitation (cm)
Air Dwpt 6 hour altimeter (cm) sea level (mb) 1 hr 3 hr 6 hr
Max. Min.
06 02:15 Calm 16.09 Overcast OVC006 10 9 94% 76.43 0.0
06 01:55 Calm 16.09 Overcast OVC004 10 9 94% 76.43 0.0
06 01:35 Calm 16.09 Overcast OVC003 10 9 94% 76.43 0.0
06 01:15 Calm 16.09 Overcast OVC003 10 9 94% 76.43 0.0
06 00:55 Calm 16.09 Overcast BKN004 BKN010 OVC022 10 9 94% 76.4 0.0
06 00:35 Calm 16.09 Overcast SCT004 BKN009 OVC023 10 9 94% 76.4 0.0
06 00:15 Calm 16.09 Overcast FEW010 FEW015 OVC023 10 9 94% 76.4 0.0
05 23:55 Calm 16.09 Overcast SCT016 OVC023 10 9 94% 76.4 0.0
05 23:35 Calm 16.09 Overcast BKN016 OVC023 10 9 94% 76.38 0.0
05 23:15 Calm 16.09 Overcast OVC022 10 9 94% 76.38 0.0
05 22:55 Calm 16.09 Overcast OVC022 10 9 94% 76.35 0.0
05 22:35 Calm 16.09 Overcast OVC023 10 9 94% 76.35 0.0
05 22:15 Calm 16.09 Overcast OVC024 10 9 94% 76.33 0.0
05 21:55 Calm 16.09 Overcast OVC023 10 9 94% 76.33 0.0
05 21:35 Calm 16.09 Overcast OVC022 10 9 94% 76.3 0.0
05 21:15 Calm 16.09 Overcast OVC021 10 9 94% 76.3 0.0
05 20:55 Calm 16.09 Overcast FEW003 OVC018 10 9 94% 76.3 0.0
05 20:35 Calm 16.09 Overcast SCT004 OVC015 10 9 94% 76.28 0.0
05 20:15 Calm 11.27 Overcast FEW004 OVC014 10 9 94% 76.23 0.0
05 19:55 Calm 16.09 Overcast FEW006 OVC012 10 9 94% 76.25 0.0
05 19:35 Calm 16.09 Overcast BKN006 OVC010 10 9 94% 76.23 0.0
05 19:15 Calm 16.09 Overcast OVC004 10 9 94% 76.2 0.0
05 18:55 Calm 16.09 Overcast OVC004 10 9 94% 76.2 0.0
05 18:35 Calm 16.09 Overcast OVC005 10 9 94% 76.15 0.0
05 18:15 Calm 16.09 Overcast OVC005 10 9 94% 76.17 0.0
05 17:55 Calm 16.09 Overcast OVC006 10 9 94% 76.17 0.0
05 17:35 Calm 16.09 Overcast OVC006 10 9 94% 76.15 0.0
05 17:15 Calm 16.09 Overcast BKN004 OVC008 10 9 94% 76.15 0.0
05 16:55 Calm 16.09 Overcast OVC007 10 9 94% 76.15 0.0
05 16:35 Calm 16.09 Overcast OVC004 10 9 94% 76.12 0.0
05 16:15 Calm 16.09 Overcast OVC005 10 9 94% 76.15 0.0
05 15:55 Calm 16.09 Overcast OVC005 10 9 94% 76.15 0.0
05 15:35 Calm 16.09 Overcast OVC005 10 9 94% 76.15 0.0
05 15:15 Calm 16.09 Overcast OVC005 10 9 94% 76.15 0.0
05 14:55 Calm 16.09 Overcast BKN008 OVC013 10 9 94% 76.15 0.0
05 14:35 Calm 16.09 Overcast BKN006 BKN013 OVC017 10 8 88% 76.17 0.0
05 14:15 W 6 16.09 Overcast OVC004 10 9 94% 76.17 0.0
05 13:55 Calm 16.09 Overcast OVC004 9 8 94% 76.17 0.0
05 13:35 W 9 16.09 Overcast OVC005 9 8 94% 8 76.15 0.0
05 13:15 W 7 16.09 Overcast OVC006 10 8 88% 9 76.15 0.0
05 12:55 Calm 16.09 Overcast OVC006 9 8 94% 76.17 0.0
05 12:35 Calm 16.09 Overcast OVC006 10 8 88% 76.15 0.0
05 12:15 Calm 16.09 Overcast OVC005 9 8 94% 76.15 0.0
05 11:55 Calm 16.09 Overcast BKN005 OVC009 9 8 94% 76.15 0.0
05 11:35 Calm 16.09 Overcast BKN005 OVC010 9 8 94% 76.15 0.0
05 11:15 Calm 16.09 Overcast BKN009 OVC012 9 8 94% 76.12 0.0
05 10:55 Calm 16.09 Overcast BKN007 OVC012 9 8 94% 76.12 0.0
05 10:35 Calm 16.09 Overcast OVC005 9 7 87% 76.12 0.0
05 10:15 Calm 16.09 Overcast OVC006 9 7 87% 76.12 0.0
05 09:55 Calm 16.09 Overcast OVC006 9 8 94% 76.12 0.0
05 09:35 Calm 16.09 Overcast OVC006 9 8 94% 76.1 0.0
05 09:15 Calm 16.09 Overcast BKN005 OVC014 9 8 94% 76.1 0.0
05 08:55 Calm 16.09 Overcast OVC004 8 7 93% 76.1 0.0
05 08:35 Calm 16.09 Mostly Cloudy BKN004 BKN014 7 7 100% 76.1 0.0
05 08:15 Calm 16.09 Overcast BKN005 OVC014 7 7 100% 76.07 0.0
05 07:55 Calm 16.09 Overcast BKN005 OVC014 7 7 100% 76.07 0.0
05 07:35 Calm 16.09 Overcast OVC015 7 7 100% 76.05 0.0
05 07:15 Calm 16.09 Overcast FEW004 OVC016 7 7 100% 76.02 0.0
05 06:55 Calm 1.61 Fog/Mist BKN004 BKN008 OVC019 7 6 93% 76.02 0.0
05 06:35 Calm 16.09 Overcast OVC019 7 6 93% 76.02 0.0
05 06:15 Calm 16.09 Overcast OVC018 7 6 93% 76 0.0
05 05:55 Calm 14.48 Overcast OVC018 7 6 93% 76.02 0.0
05 05:35 Calm 9.66 Fog/Mist SCT007 OVC019 7 6 93% 76.02 0.0
05 05:15 Calm 16.09 Overcast BKN007 OVC020 7 6 93% 76.02 0.0
05 04:55 Calm 16.09 Overcast OVC021 7 6 93% 76 0.0
05 04:35 Calm 14.48 Overcast OVC020 7 6 93% 76.02 0.0
05 04:15 Calm 12.87 Overcast OVC020 7 7 100% 76.02 0.0
05 03:55 Calm 16.09 Overcast SCT007 OVC020 7 7 100% 76.02 0.0
05 03:35 Calm 16.09 Overcast BKN006 OVC023 7 7 100% 76.02 0.0
05 03:15 Calm 16.09 Overcast FEW004 SCT009 OVC023 7 7 100% 76.02 0.0
05 02:55 Calm 16.09 Overcast SCT004 OVC009 7 7 100% 76.02 0.0
05 02:35 Calm 16.09 Overcast FEW003 OVC009 7 7 100% 76.02 0.0
05 02:15 Calm 2.01 Fog/Mist OVC002 7 7 100% 76.05 0.0
05 01:55 Calm 0.24 Fog OVC002 7 7 100% 76.05 0.0
05 01:35 Calm 0.24 Fog OVC002 7 7 100% 76.07 0.0
05 01:15 Vrbl 7 0.40 Fog OVC002 7 7 100% 6 76.07 0.0
05 00:55 Calm 2.41 Fog/Mist OVC002 7 7 100% 76.07 0.0
05 00:35 Calm 1.21 Fog/Mist OVC002 7 7 100% 76.07 0.0
05 00:15 Calm 4.83 Fog/Mist BKN004 OVC010 7 7 100% 76.05 0.0
04 23:55 Calm 16.09 Overcast OVC005 7 7 100% 76.07 0.0
04 23:35 Calm 16.09 Overcast SCT003 BKN007 OVC011 7 7 100% 76.1 0.0
04 23:15 Calm 2.41 Fog/Mist BKN004 OVC017 7 7 100% 76.07 0.0
04 22:55 Calm 16.09 Overcast BKN003 OVC017 7 7 100% 76.12 0.0
04 22:35 Calm 6.44 Fog/Mist OVC003 7 7 100% 76.1 0.0
04 22:15 Calm 0.40 Fog OVC002 7 7 100% 76.07 0.0
04 21:55 SE 7 0.80 Fog/Mist OVC002 7 7 100% 6 76.12 0.0
04 21:35 Calm 0.40 Fog OVC002 7 7 100% 76.1 0.0
04 21:15 SE 7 8.05 Fog/Mist BKN003 BKN041 OVC060 7 7 100% 6 76.1 0.0
04 20:55 Calm 4.83 Fog/Mist BKN002 BKN048 OVC055 7 7 100% 76.07 0.0
04 20:35 Calm 0.40 Fog OVC002 7 7 100% 76.07 0.0
04 20:15 Calm 1.21 Fog/Mist OVC002 7 7 100% 76.12 0.0
04 19:55 Calm 0.24 Fog OVC002 7 7 100% 76.12 0.0
04 19:35 Vrbl 7 G 19 0.40 Fog OVC002 7 7 100% 6 76.12 0.0
04 19:15 Calm 0.24 Fog OVC002 7 7 100% 76.12 0.0
04 18:55 Calm 0.24 Fog OVC002 7 7 100% 76.07 0.0
04 18:35 Vrbl 9 0.24 Fog OVC002 7 7 100% 5 76.02 0.0
04 18:15 Vrbl 7 0.40 Fog OVC002 8 7 93% 7 76.05 0.0
04 17:55 Calm 2.41 Fog/Mist OVC003 7 7 100% 76.07 0.0
04 17:35 Calm 6.44 Fog/Mist OVC003 7 7 100% 76.1 0.0
04 17:15 Calm 0.80 Fog/Mist OVC002 7 7 100% 76.05 0.0
04 16:55 Calm 0.24 Fog OVC002 7 7 100% 76.1 0.0
04 16:35 Vrbl 7 0.24 Fog OVC002 7 7 100% 6 76.1 0.0
04 16:15 Calm 0.24 Fog OVC002 8 8 100% 76.07 0.0
04 15:55 Vrbl 11 0.24 Fog OVC002 8 8 100% 6 76.12 0.0
04 15:35 Calm 0.40 Fog OVC002 8 8 100% 76.07 0.0
04 15:15 Calm 0.24 Fog OVC002 8 8 100% 76.1 0.0
04 14:55 Calm 1.61 Fog/Mist OVC003 8 8 100% 76.12 0.0
04 14:35 Calm 16.09 Overcast BKN005 BKN008 OVC012 9 8 94% 76.1 0.0
04 14:15 Calm 16.09 Overcast OVC004 8 8 100% 76.12 0.0
04 13:55 Calm 14.48 Overcast OVC003 8 8 100% 76.1 0.0
04 13:35 Calm 0.80 Fog/Mist OVC003 9 8 94% 76.1 0.0
04 13:15 Calm 16.09 Overcast OVC004 9 8 94% 76.12 0.0
04 12:55 Calm 16.09 Overcast BKN006 OVC010 9 8 94% 76.12 0.0
04 12:35 Calm 12.87 Overcast SCT007 BKN011 OVC032 9 8 94% 76.12 0.0
04 12:15 Calm 12.87 Overcast SCT013 BKN022 OVC032 9 8 94% 76.15 0.0
04 11:55 Calm 16.09 Overcast FEW013 SCT022 OVC028 10 7 82% 76.15 0.0
04 11:35 Calm 16.09 Overcast BKN020 OVC028 10 7 82% 76.15 0.0
04 11:15 Calm 16.09 Overcast OVC020 10 6 76% 76.12 0.0
04 10:55 Calm 16.09 Overcast OVC019 9 6 82% 76.15 0.0
04 10:35 Calm 16.09 Overcast OVC018 9 6 82% 76.12 0.0
04 10:15 Calm 16.09 Overcast OVC017 9 6 82% 76.12 0.0
04 09:55 Calm 16.09 Overcast BKN016 OVC027 9 6 82% 76.1 0.0
04 09:35 Calm 16.09 Overcast BKN016 OVC027 9 6 82% 76.1 0.0
04 09:15 Calm 16.09 Overcast OVC016 9 6 82% 76.1 0.0
04 08:55 Calm 16.09 Overcast OVC015 9 6 82% 76.1 0.0
04 08:35 Calm 16.09 Overcast OVC013 9 6 82% 76.07 0.0
04 08:15 Calm 16.09 Overcast OVC013 8 6 87% 76.07 0.0
04 07:55 Calm 16.09 Overcast OVC014 8 6 87% 76.07 0.0
04 07:35 Calm 16.09 Overcast OVC012 8 6 87% 76.07 0.0
04 07:15 Calm 16.09 Overcast OVC012 8 7 93% 76.05 0.0
04 06:55 Calm 16.09 Overcast OVC012 8 7 93% 76.05 0.0
04 06:35 Calm 16.09 Overcast OVC011 8 6 87% 76.05 0.0
04 06:15 Calm 16.09 Overcast OVC010 8 6 87% 76.02 0.0
04 05:55 Calm 16.09 Overcast OVC009 8 6 87% 76 0.0
04 05:35 Calm 16.09 Overcast OVC009 8 6 87% 76 0.0
04 05:15 Calm 16.09 Overcast OVC009 8 7 93% 76 0.0
04 04:55 Calm 16.09 Overcast OVC008 8 7 93% 76.02 0.0
04 04:35 Calm 16.09 Overcast OVC007 8 6 87% 76 0.0
04 04:15 Calm 16.09 Overcast OVC006 8 6 87% 76.02 0.0
04 03:55 Calm 16.09 Overcast OVC005 8 6 87% 76 0.0
04 03:35 Calm 16.09 Overcast OVC005 8 7 93% 76 0.0
04 03:15 Calm 16.09 Overcast BKN005 OVC055 8 8 100% 76.02 0.0
04 02:55 Calm 16.09 Overcast FEW004 BKN055 OVC095 9 8 94% 76.02 0.0
04 02:35 Calm 16.09 Mostly Cloudy FEW031 SCT055 BKN100 10 8 88% 76.02 0.0
04 02:15 Calm 16.09 Overcast FEW026 BKN100 OVC120 10 8 88% 76.02 0.0
04 01:55 Calm 16.09 Overcast FEW100 OVC120 10 8 88% 76.02 0.0
04 01:35 Calm 16.09 Overcast FEW031 SCT055 OVC120 9 8 94% 76.05 0.0
04 01:15 Calm 16.09 Mostly Cloudy FEW030 SCT038 BKN046 9 8 94% 76.05 0.0
04 00:55 Calm 16.09 Overcast SCT026 BKN030 OVC045 9 8 94% 76.05 0.0
04 00:35 Calm 16.09 Overcast BKN022 OVC026 10 8 88% 76.05 0.0
04 00:15 Calm 16.09 Overcast FEW006 BKN016 OVC021 10 8 88% 76.07 0.0
03 23:55 Calm 16.09 Overcast SCT006 BKN009 OVC014 10 8 88% 76.07 0.0
03 23:35 Calm 16.09 Overcast OVC007 10 9 94% 76.07 0.0
03 23:15 Calm 16.09 Overcast BKN008 OVC017 10 9 94% 76.07 0.0
03 22:55 Calm 16.09 Overcast OVC016 10 9 94% 76.07 0.0
03 22:35 Calm 16.09 Overcast OVC015 10 8 88% 76.07 0.0
03 22:15 Calm 16.09 Overcast OVC015 10 8 88% 76.05 0.0
03 21:55 Calm 16.09 Overcast BKN013 OVC017 10 8 88% 76.05 0.0
03 21:35 Calm 16.09 Overcast OVC015 10 9 94% 76.02 0.0
03 21:15 Calm 16.09 Overcast OVC015 10 8 88% 76.02 0.0
03 20:55 Calm 16.09 Overcast OVC014 10 8 88% 76.02 0.0
03 20:35 Calm 16.09 Overcast OVC013 10 8 88% 76 0.0
03 20:15 Calm 16.09 Overcast OVC012 10 8 88% 75.97 0.0
03 19:55 Calm 16.09 Overcast OVC012 10 8 88% 75.95 0.0
03 19:35 Calm 16.09 Overcast OVC007 10 9 94% 75.95 0.0
03 19:15 Calm 16.09 Overcast OVC007 11 9 88% 75.92 0.0
03 18:55 Calm 16.09 Overcast OVC008 10 8 88% 75.95 0.0
03 18:35 Calm 16.09 Overcast OVC007 11 9 88% 75.92 0.0
03 18:15 Calm 16.09 Overcast OVC007 11 9 88% 75.92 0.0
03 17:55 Calm 16.09 Overcast OVC007 11 9 88% 75.92 0.0
03 17:35 Calm 16.09 Mostly Cloudy BKN008 11 9 88% 75.92 0.0
03 17:15 Vrbl 9 16.09 Fair CLR 12 9 82% 75.87 0.0
03 16:55 NW 7 16.09 A Few Clouds FEW070 FEW085 12 9 82% 75.87 0.0
03 16:35 Calm 16.09 Fair CLR 11 9 88% 75.95 0.0
03 16:15 Calm 16.09 Partly Cloudy SCT085 11 9 88% 75.95 0.0
03 15:55 Calm 16.09 Mostly Cloudy BKN090 BKN110 11 9 88% 75.95 0.0
03 15:35 Calm 16.09 Mostly Cloudy SCT008 BKN110 11 9 88% 75.97 0.0
03 15:15 Calm 16.09 Mostly Cloudy SCT008 SCT065 BKN090 11 9 88% 75.97 0.0
03 14:55 Calm 16.09 Partly Cloudy SCT006 SCT065 SCT090 11 9 88% 75.95 0.0
03 14:35 Vrbl 7 G 20 16.09 Mostly Cloudy BKN006 BKN060 BKN075 11 9 88% 75.97 0.0
03 14:15 Vrbl 7 16.09 Overcast FEW070 BKN080 OVC100 11 9 88% 75.95 0.0
03 13:55 Calm 16.09 Mostly Cloudy FEW008 FEW070 BKN085 12 9 82% 75.92 0.0
03 13:35 Vrbl 11 16.09 A Few Clouds FEW080 13 10 82% 75.95 0.0
03 13:15 Calm 16.09 A Few Clouds FEW095 15 10 72% 75.92 0.0
03 12:55 Calm 16.09 Fair CLR 16 10 68% 75.92 0.0
03 12:35 Calm 16.09 Fair CLR 17 10 64% 75.92 0.0
03 12:15 Calm 16.09 Fair CLR 17 10 64% 75.92 0.0
03 11:55 Calm 16.09 Fair CLR 17 11 68% 75.92 0.0
03 11:35 Calm 16.09 Fair CLR 18 11 64% 75.92 0.0
03 11:15 Calm 16.09 Fair CLR 18 10 60% 75.92 0.0
03 10:55 Calm 16.09 A Few Clouds FEW110 16 10 68% 75.92 0.0
03 10:35 Calm 16.09 Mostly Cloudy BKN110 15 11 77% 75.95 0.0
03 10:15 Calm 16.09 Mostly Cloudy BKN110 16 9 63% 75.92 0.0
03 09:55 Calm 16.09 Partly Cloudy SCT110 16 9 63% 75.9 0.0
03 09:35 Calm 16.09 Fair CLR 16 9 63% 75.9 0.0
03 09:15 Calm 16.09 A Few Clouds FEW120 14 9 72% 75.9 0.0
03 08:55 Calm 16.09 Fair CLR 14 9 72% 75.9 0.0
03 08:35 Calm 16.09 A Few Clouds FEW120 13 9 77% 75.87 0.0
03 08:15 Calm 16.09 A Few Clouds FEW120 13 8 72% 75.87 0.0
03 07:55 Calm 16.09 Fair CLR 13 9 77% 75.84 0.0
03 07:35 Calm 16.09 Fair CLR 13 8 72% 75.84 0.0
03 07:15 Calm 16.09 Fair CLR 12 8 77% 75.82 0.0
03 06:55 Calm 16.09 Fair CLR 13 7 67% 75.79 0.0
03 06:35 Calm 16.09 Fair CLR 13 7 67% 75.79 0.0
03 06:15 Calm 16.09 Fair CLR 13 7 67% 75.77 0.0
03 05:55 Calm 16.09 Fair CLR 14 7 63% 75.74 0.0
03 05:35 Calm 16.09 Fair CLR 14 6 59% 75.77 0.0
03 05:15 Calm 16.09 Fair CLR 15 6 55% 75.77 0.0
03 04:55 Calm 16.09 Fair CLR 16 5 48% 75.77 0.0
03 04:35 Calm 16.09 A Few Clouds FEW045 16 5 48% 75.77 0.0
03 04:15 Calm 16.09 A Few Clouds FEW045 FEW050 17 4 42% 75.79 0.0
03 03:55 Calm 16.09 Fair CLR 16 5 48% 75.79 0.0
03 03:35 Calm 16.09 Fair CLR 17 4 42% 75.79 0.0
03 03:15 Calm 16.09 Fair CLR 16 5 48% 75.79 0.0
03 02:55 Calm 16.09 Partly Cloudy FEW050 SCT060 17 5 45% 75.82 0.0
03 02:35 Calm 16.09 Partly Cloudy SCT050 SCT060 17 5 45% 75.82 0.0
Date Time (pdt) Wind (kph) Vis. (km) Weather Sky Cond. Air Dwpt Max. Min. Relative Humidity Wind Chill (°C) Heat Index (°C) altimeter (cm) sea level (mb) 1 hr 3 hr 6 hr
6 hour
Temperature (ºC) Pressure Precipitation (cm)